Home > Weather > Big Bend > Past weeks

Flag for Swaziland Weather for the Past 2 Weeks in Big Bend, Swaziland

Now
77 °F

Partly sunny.


Feels Like: 79 °F
Forecast: 69 / 101 °F
Wind: 9 mph from North

Location: Maputo / Mavalane

Current Time: Feb 14, 2016 at 7:07:37 AM

Latest Report: Feb 14, 2016 at 6:00 AM


Visibility: N/A

Pressure: 29.95 "Hg

Humidity: 69%

Dew point: 66 °F

Location of Big BendLocation

Historic Weather in Big Bend — Graph

°F

Big Bend Temperature Yesterday

Maximum temperature yesterday: 88 °F (at 12:00 PM)
Minimum temperature yesterday: 73 °F (at 6:00 AM)
Average temperature yesterday: 82 °F

High & Low Weather Summary for the Past Weeks

 TemperatureHumidityPressure
High99 °F (Jan 31, 7:00 PM)94% (Feb 7, 6:00 PM)30.12 "Hg (Feb 7, 6:00 PM)
Low68 °F (Feb 7, 6:00 PM)36% (Feb 2, 11:00 AM)29.68 "Hg (Feb 3, 6:00 PM)
Average81 °F64%29.94 "Hg
* Reported Jan 30 6:00 AM — Feb 14 6:00 AM, Big Bend, Weather by CustomWeather, © 2016

Note: Actual official high and low records may vary slightly from our data, if they occured in-between our weather recording intervals... More about our weather records

Advertising

Big Bend Weather History for the Previous 24 Hours

 ConditionsComfort  
Time TempWeatherWind HumidityBarometerVisibility
6:00 AM
Sun, Feb 14
77 °FPartly sunny.9 mph69%29.95 "HgN/A
5:00 AM77 °FPartly sunny.8 mph74%29.95 "HgN/A
4:00 AM77 °FPassing clouds.7 mph74%29.92 "HgN/A
2:00 AM77 °FPassing clouds.5 mph79%29.92 "HgN/A
1:00 AM77 °FPassing clouds.5 mph79%29.89 "HgN/A
12:00 AM79 °FPassing clouds.7 mph74%29.86 "HgN/A
11:00 PM
Sat, Feb 13
79 °FPassing clouds.12 mph74%29.86 "HgN/A
10:00 PM79 °FPassing clouds.14 mph70%29.86 "HgN/A
9:00 PM79 °FPassing clouds.15 mph70%29.86 "HgN/A
8:00 PM82 °FPassing clouds.14 mph62%29.83 "HgN/A
6:00 PM82 °FPassing clouds.21 mph62%29.77 "HgN/A
5:00 PM84 °FPassing clouds.21 mph55%29.77 "HgN/A
4:00 PM86 °FPassing clouds.21 mph52%29.77 "HgN/A
3:00 PM88 °FPassing clouds.21 mph49%29.77 "HgN/A
2:00 PM88 °FPassing clouds.17 mph52%29.80 "HgN/A
1:00 PM88 °FScattered clouds.15 mph52%29.83 "HgN/A
12:00 PM88 °FScattered clouds.14 mph52%29.86 "HgN/A
11:00 AM84 °FPartly sunny.10 mph58%29.89 "HgN/A
10:00 AM86 °FScattered clouds.7 mph52%29.89 "HgN/A
8:00 AM79 °FPartly sunny.9 mph70%29.92 "HgN/A
7:00 AM77 °FPartly sunny.5 mph74%29.92 "HgN/A
Weather by CustomWeather, © 2016

See weather overviewHow to use our weather pages